[Date Prev][Date Next][Thread Prev][Thread Next] - [Date Index][Thread Index][Author Index]

2 Line ISS Keps 7-13



ISS
1 25544U 98067A   05194.24803681  .00025558  00000-0  19825-3 0  8971
2 25544 051.6449 127.3977 0003351 110.6345 040.6169 15.71641397379783
----
Via the sarex mailing list at AMSAT.ORG courtesy of AMSAT-NA.
To unsubscribe, send "unsubscribe sarex" to Majordomo@amsat.org



AMSAT Top AMSAT Home